Year,Month,Day,Hour,Minute,Value (Times are PST for temperature in C)
2006,08,06,00,00,16.50
2006,08,06,00,01,16.40
2006,08,06,00,02,16.40
2006,08,06,00,03,16.40
2006,08,06,00,04,16.40
2006,08,06,00,05,16.40
2006,08,06,00,06,16.40
2006,08,06,00,07,16.40
2006,08,06,00,08,16.30
2006,08,06,00,09,16.30
2006,08,06,00,10,16.30
2006,08,06,00,11,16.30
2006,08,06,00,12,16.30
2006,08,06,00,13,16.30
2006,08,06,00,14,16.30
2006,08,06,00,15,16.30
2006,08,06,00,16,16.20
2006,08,06,00,17,16.20
2006,08,06,00,18,16.20
2006,08,06,00,19,16.20
2006,08,06,00,20,16.20
2006,08,06,00,21,16.20
2006,08,06,00,22,16.10
2006,08,06,00,23,16.10
2006,08,06,00,24,16.10
2006,08,06,00,25,16.00
2006,08,06,00,26,16.00
2006,08,06,00,27,16.00
2006,08,06,00,28,15.90
2006,08,06,00,29,15.90
2006,08,06,00,30,15.90
2006,08,06,00,31,15.90
2006,08,06,00,32,15.90
2006,08,06,00,33,15.90
2006,08,06,00,34,15.90
2006,08,06,00,35,15.90
2006,08,06,00,36,15.90
2006,08,06,00,37,15.90
2006,08,06,00,38,15.90
2006,08,06,00,39,15.90
2006,08,06,00,40,15.90
2006,08,06,00,41,15.90
2006,08,06,00,42,15.90
2006,08,06,00,43,15.90
2006,08,06,00,44,15.90
2006,08,06,00,45,15.80
2006,08,06,00,46,15.80
2006,08,06,00,47,15.80
2006,08,06,00,48,15.80
2006,08,06,00,49,15.80
2006,08,06,00,50,15.80
2006,08,06,00,51,15.80
2006,08,06,00,52,15.80
2006,08,06,00,53,15.80
2006,08,06,00,54,15.90
2006,08,06,00,55,15.90
2006,08,06,00,56,15.90
2006,08,06,00,57,15.90
2006,08,06,00,58,15.90
2006,08,06,00,59,15.80
2006,08,06,01,00,15.80
2006,08,06,01,01,15.80
2006,08,06,01,02,15.80
2006,08,06,01,03,15.80
2006,08,06,01,04,15.70
2006,08,06,01,05,15.70
2006,08,06,01,06,15.70
2006,08,06,01,07,15.70
2006,08,06,01,08,15.70
2006,08,06,01,09,15.70
2006,08,06,01,10,15.70
2006,08,06,01,11,15.70
2006,08,06,01,12,15.70
2006,08,06,01,13,15.70
2006,08,06,01,14,15.70
2006,08,06,01,15,15.70
2006,08,06,01,16,15.70
2006,08,06,01,17,15.70
2006,08,06,01,18,15.70
2006,08,06,01,19,15.70
2006,08,06,01,20,15.60
2006,08,06,01,21,15.60
2006,08,06,01,22,15.60
2006,08,06,01,23,15.50
2006,08,06,01,24,15.50
2006,08,06,01,25,15.40
2006,08,06,01,26,15.40
2006,08,06,01,27,15.30
2006,08,06,01,28,15.30
2006,08,06,01,29,15.30
2006,08,06,01,30,15.30
2006,08,06,01,31,15.20
2006,08,06,01,32,15.20
2006,08,06,01,33,15.10
2006,08,06,01,34,15.10
2006,08,06,01,35,15.00
2006,08,06,01,36,15.00
2006,08,06,01,37,15.00
2006,08,06,01,38,15.00
2006,08,06,01,39,15.00
2006,08,06,01,40,15.00
2006,08,06,01,41,15.00
2006,08,06,01,42,15.00
2006,08,06,01,43,15.00
2006,08,06,01,44,15.00
2006,08,06,01,45,15.00
2006,08,06,01,46,15.00
2006,08,06,01,47,14.90
2006,08,06,01,48,14.90
2006,08,06,01,49,14.80
2006,08,06,01,50,14.80
2006,08,06,01,51,14.80
2006,08,06,01,52,14.80
2006,08,06,01,53,14.80
2006,08,06,01,54,14.70
2006,08,06,01,55,14.70
2006,08,06,01,56,14.70
2006,08,06,01,57,14.70
2006,08,06,01,58,14.70
2006,08,06,01,59,14.70
2006,08,06,02,00,14.70
2006,08,06,02,01,14.70
2006,08,06,02,02,14.70
2006,08,06,02,03,14.70
2006,08,06,02,04,14.70
2006,08,06,02,05,14.60
2006,08,06,02,06,14.60
2006,08,06,02,07,14.60
2006,08,06,02,08,14.60
2006,08,06,02,09,14.50
2006,08,06,02,10,14.50
2006,08,06,02,11,14.50
2006,08,06,02,12,14.50
2006,08,06,02,13,14.60
2006,08,06,02,14,14.60
2006,08,06,02,15,14.60
2006,08,06,02,16,14.60
2006,08,06,02,17,14.60
2006,08,06,02,18,14.60
2006,08,06,02,19,14.60
2006,08,06,02,20,14.60
2006,08,06,02,21,14.60
2006,08,06,02,22,14.60
2006,08,06,02,23,14.60
2006,08,06,02,24,14.50
2006,08,06,02,25,14.50
2006,08,06,02,26,14.50
2006,08,06,02,27,14.50
2006,08,06,02,28,14.50
2006,08,06,02,29,14.40
2006,08,06,02,30,14.40
2006,08,06,02,31,14.40
2006,08,06,02,32,14.40
2006,08,06,02,33,14.40
2006,08,06,02,34,14.40
2006,08,06,02,35,14.30
2006,08,06,02,36,14.30
2006,08,06,02,37,14.30
2006,08,06,02,38,14.30
2006,08,06,02,39,14.40
2006,08,06,02,40,14.40
2006,08,06,02,41,14.40
2006,08,06,02,42,14.40
2006,08,06,02,43,14.40
2006,08,06,02,44,14.40
2006,08,06,02,45,14.40
2006,08,06,02,46,14.30
2006,08,06,02,47,14.30
2006,08,06,02,48,14.30
2006,08,06,02,49,14.30
2006,08,06,02,50,14.30
2006,08,06,02,51,14.30
2006,08,06,02,52,14.20
2006,08,06,02,53,14.20
2006,08,06,02,54,14.20
2006,08,06,02,55,14.20
2006,08,06,02,56,14.10
2006,08,06,02,57,14.10
2006,08,06,02,58,14.00
2006,08,06,02,59,14.00
2006,08,06,03,00,13.90
2006,08,06,03,01,13.90
2006,08,06,03,02,13.90
2006,08,06,03,03,13.80
2006,08,06,03,04,13.80
2006,08,06,03,05,13.80
2006,08,06,03,06,13.80
2006,08,06,03,07,13.80
2006,08,06,03,08,13.80
2006,08,06,03,09,13.80
2006,08,06,03,10,13.80
2006,08,06,03,11,13.80
2006,08,06,03,12,13.80
2006,08,06,03,13,13.80
2006,08,06,03,14,13.80
2006,08,06,03,15,13.80
2006,08,06,03,16,13.80
2006,08,06,03,17,13.70
2006,08,06,03,18,13.70
2006,08,06,03,19,13.80
2006,08,06,03,20,13.80
2006,08,06,03,21,13.80
2006,08,06,03,22,13.70
2006,08,06,03,23,13.70
2006,08,06,03,24,13.70
2006,08,06,03,25,13.70
2006,08,06,03,26,13.70
2006,08,06,03,27,13.60
2006,08,06,03,28,13.60
2006,08,06,03,29,13.60
2006,08,06,03,30,13.60
2006,08,06,03,31,13.50
2006,08,06,03,32,13.50
2006,08,06,03,33,13.40
2006,08,06,03,34,13.40
2006,08,06,03,35,13.40
2006,08,06,03,36,13.30
2006,08,06,03,37,13.30
2006,08,06,03,38,13.30
2006,08,06,03,39,13.30
2006,08,06,03,40,13.30
2006,08,06,03,41,13.30
2006,08,06,03,42,13.30
2006,08,06,03,43,13.30
2006,08,06,03,44,13.30
2006,08,06,03,45,13.30
2006,08,06,03,46,13.30
2006,08,06,03,47,13.30
2006,08,06,03,48,13.30
2006,08,06,03,49,13.30
2006,08,06,03,50,13.30
2006,08,06,03,51,13.30
2006,08,06,03,52,13.30
2006,08,06,03,53,13.40
2006,08,06,03,54,13.40
2006,08,06,03,55,13.40
2006,08,06,03,56,13.30
2006,08,06,03,57,13.30
2006,08,06,03,58,13.30
2006,08,06,03,59,13.30
2006,08,06,04,00,13.30
2006,08,06,04,01,13.30
2006,08,06,04,02,13.30
2006,08,06,04,03,13.30
2006,08,06,04,04,13.30
2006,08,06,04,05,13.30
2006,08,06,04,06,13.30
2006,08,06,04,07,13.20
2006,08,06,04,08,13.20
2006,08,06,04,09,13.20
2006,08,06,04,10,13.20
2006,08,06,04,11,13.20
2006,08,06,04,12,13.20
2006,08,06,04,13,13.20
2006,08,06,04,14,13.20
2006,08,06,04,15,13.20
2006,08,06,04,16,13.20
2006,08,06,04,17,13.30
2006,08,06,04,18,13.30
2006,08,06,04,19,13.30
2006,08,06,04,20,13.30
2006,08,06,04,21,13.30
2006,08,06,04,22,13.30
2006,08,06,04,23,13.40
2006,08,06,04,24,13.40
2006,08,06,04,25,13.40
2006,08,06,04,26,13.40
2006,08,06,04,27,13.40
2006,08,06,04,28,13.40
2006,08,06,04,29,13.40
2006,08,06,04,30,13.40
2006,08,06,04,31,13.30
2006,08,06,04,32,13.30
2006,08,06,04,33,13.30
2006,08,06,04,34,13.30
2006,08,06,04,35,13.20
2006,08,06,04,36,13.20
2006,08,06,04,37,13.20
2006,08,06,04,38,13.20
2006,08,06,04,39,13.20
2006,08,06,04,40,13.20
2006,08,06,04,41,13.20
2006,08,06,04,42,13.20
2006,08,06,04,43,13.20
2006,08,06,04,44,13.20
2006,08,06,04,45,13.10
2006,08,06,04,46,13.10
2006,08,06,04,47,13.10
2006,08,06,04,48,13.10
2006,08,06,04,49,13.00
2006,08,06,04,50,13.00
2006,08,06,04,51,13.00
2006,08,06,04,52,13.00
2006,08,06,04,53,13.00
2006,08,06,04,54,13.00
2006,08,06,04,55,12.90
2006,08,06,04,56,12.90
2006,08,06,04,57,12.90
2006,08,06,04,58,12.90
2006,08,06,04,59,12.90
2006,08,06,05,00,12.80
2006,08,06,05,01,12.80
2006,08,06,05,02,12.80
2006,08,06,05,03,12.80
2006,08,06,05,04,12.80
2006,08,06,05,05,12.80
2006,08,06,05,06,12.80
2006,08,06,05,07,12.70
2006,08,06,05,08,12.70
2006,08,06,05,09,12.70
2006,08,06,05,10,12.70
2006,08,06,05,11,12.70
2006,08,06,05,12,12.60
2006,08,06,05,13,12.60
2006,08,06,05,14,12.60
2006,08,06,05,15,12.50
2006,08,06,05,16,12.50
2006,08,06,05,17,12.50
2006,08,06,05,18,12.40
2006,08,06,05,19,12.40
2006,08,06,05,20,12.40
2006,08,06,05,21,12.40
2006,08,06,05,22,12.40
2006,08,06,05,23,12.40
2006,08,06,05,24,12.40
2006,08,06,05,25,12.40
2006,08,06,05,26,12.40
2006,08,06,05,27,12.40
2006,08,06,05,28,12.40
2006,08,06,05,29,12.40
2006,08,06,05,30,12.40
2006,08,06,05,31,12.40
2006,08,06,05,32,12.30
2006,08,06,05,33,12.30
2006,08,06,05,34,12.30
2006,08,06,05,35,12.30
2006,08,06,05,36,12.20
2006,08,06,05,37,12.20
2006,08,06,05,38,12.20
2006,08,06,05,39,12.20
2006,08,06,05,40,12.20
2006,08,06,05,41,12.10
2006,08,06,05,42,12.10
2006,08,06,05,43,12.10
2006,08,06,05,44,12.10
2006,08,06,05,45,12.10
2006,08,06,05,46,12.10
2006,08,06,05,47,12.10
2006,08,06,05,48,12.10
2006,08,06,05,49,12.10
2006,08,06,05,50,12.00
2006,08,06,05,51,12.00
2006,08,06,05,52,12.00
2006,08,06,05,53,12.00
2006,08,06,05,54,12.10
2006,08,06,05,55,12.10
2006,08,06,05,56,12.10
2006,08,06,05,57,12.20
2006,08,06,05,58,12.20
2006,08,06,05,59,12.20
2006,08,06,06,00,12.20
2006,08,06,06,01,12.20
2006,08,06,06,02,12.20
2006,08,06,06,03,12.20
2006,08,06,06,04,12.20
2006,08,06,06,05,12.20
2006,08,06,06,06,12.10
2006,08,06,06,07,12.10
2006,08,06,06,08,12.10
2006,08,06,06,09,12.10
2006,08,06,06,10,12.10
2006,08,06,06,11,12.10
2006,08,06,06,12,12.10
2006,08,06,06,13,12.10
2006,08,06,06,14,12.10
2006,08,06,06,15,12.10
2006,08,06,06,16,12.10
2006,08,06,06,17,12.10
2006,08,06,06,18,12.10
2006,08,06,06,19,12.10
2006,08,06,06,20,12.10
2006,08,06,06,21,12.20
2006,08,06,06,22,12.20
2006,08,06,06,23,12.20
2006,08,06,06,24,12.20
2006,08,06,06,25,12.20
2006,08,06,06,26,12.20
2006,08,06,06,27,12.30
2006,08,06,06,28,12.30
2006,08,06,06,29,12.30
2006,08,06,06,30,12.40
2006,08,06,06,31,12.40
2006,08,06,06,32,12.50
2006,08,06,06,33,12.50
2006,08,06,06,34,12.60
2006,08,06,06,35,12.60
2006,08,06,06,36,12.60
2006,08,06,06,37,12.60
2006,08,06,06,38,12.60
2006,08,06,06,39,12.60
2006,08,06,06,40,12.70
2006,08,06,06,41,12.70
2006,08,06,06,42,12.70
2006,08,06,06,43,12.80
2006,08,06,06,44,12.90
2006,08,06,06,45,13.00
2006,08,06,06,46,13.00
2006,08,06,06,47,13.10
2006,08,06,06,48,13.20
2006,08,06,06,49,13.20
2006,08,06,06,50,13.30
2006,08,06,06,51,13.30
2006,08,06,06,52,13.40
2006,08,06,06,53,13.40
2006,08,06,06,54,13.50
2006,08,06,06,55,13.50
2006,08,06,06,56,13.50
2006,08,06,06,57,13.60
2006,08,06,06,58,13.60
2006,08,06,06,59,13.60
2006,08,06,07,00,13.60
2006,08,06,07,01,13.60
2006,08,06,07,02,13.60
2006,08,06,07,03,13.70
2006,08,06,07,04,13.70
2006,08,06,07,05,13.70
2006,08,06,07,06,13.80
2006,08,06,07,07,13.90
2006,08,06,07,08,13.90
2006,08,06,07,09,14.00
2006,08,06,07,10,14.00
2006,08,06,07,11,14.10
2006,08,06,07,12,14.10
2006,08,06,07,13,14.20
2006,08,06,07,14,14.30
2006,08,06,07,15,14.30
2006,08,06,07,16,14.50
2006,08,06,07,17,14.60
2006,08,06,07,18,14.70
2006,08,06,07,19,14.80
2006,08,06,07,20,14.80
2006,08,06,07,21,14.90
2006,08,06,07,22,14.90
2006,08,06,07,23,15.00
2006,08,06,07,24,15.00
2006,08,06,07,25,15.00
2006,08,06,07,26,15.00
2006,08,06,07,27,15.00
2006,08,06,07,28,15.00
2006,08,06,07,29,15.00
2006,08,06,07,30,15.10
2006,08,06,07,31,15.30
2006,08,06,07,32,15.30
2006,08,06,07,33,15.40
2006,08,06,07,34,15.50
2006,08,06,07,35,15.60
2006,08,06,07,36,15.70
2006,08,06,07,37,15.80
2006,08,06,07,38,15.80
2006,08,06,07,39,15.90
2006,08,06,07,40,16.00
2006,08,06,07,41,16.10
2006,08,06,07,42,16.20
2006,08,06,07,43,16.20
2006,08,06,07,44,16.30
2006,08,06,07,45,16.30
2006,08,06,07,46,16.40
2006,08,06,07,47,16.40
2006,08,06,07,48,16.40
2006,08,06,07,49,16.40
2006,08,06,07,50,16.40
2006,08,06,07,51,16.50
2006,08,06,07,52,16.60
2006,08,06,07,53,16.60
2006,08,06,07,54,16.70
2006,08,06,07,55,16.70
2006,08,06,07,56,16.70
2006,08,06,07,57,16.80
2006,08,06,07,58,16.80
2006,08,06,07,59,16.80
2006,08,06,08,00,16.90
2006,08,06,08,01,17.00
2006,08,06,08,02,17.10
2006,08,06,08,03,17.10
2006,08,06,08,04,17.20
2006,08,06,08,05,17.20
2006,08,06,08,06,17.30
2006,08,06,08,07,17.30
2006,08,06,08,08,17.30
2006,08,06,08,09,17.30
2006,08,06,08,10,17.40
2006,08,06,08,11,17.50
2006,08,06,08,12,17.60
2006,08,06,08,13,17.70
2006,08,06,08,14,17.70
2006,08,06,08,15,17.80
2006,08,06,08,16,17.90
2006,08,06,08,17,17.90
2006,08,06,08,18,18.00
2006,08,06,08,19,18.00
2006,08,06,08,20,18.00
2006,08,06,08,21,17.90
2006,08,06,08,22,17.90
2006,08,06,08,23,17.90
2006,08,06,08,24,17.90
2006,08,06,08,25,17.90
2006,08,06,08,26,18.00
2006,08,06,08,27,18.00
2006,08,06,08,28,18.10
2006,08,06,08,29,18.10
2006,08,06,08,30,18.10
2006,08,06,08,31,18.10
2006,08,06,08,32,18.10
2006,08,06,08,33,18.10
2006,08,06,08,34,18.20
2006,08,06,08,35,18.20
2006,08,06,08,36,18.20
2006,08,06,08,37,18.30
2006,08,06,08,38,18.30
2006,08,06,08,39,18.30
2006,08,06,08,40,18.30
2006,08,06,08,41,18.30
2006,08,06,08,42,18.30
2006,08,06,08,43,18.30
2006,08,06,08,44,18.40
2006,08,06,08,45,18.40
2006,08,06,08,46,18.40
2006,08,06,08,47,18.40
2006,08,06,08,48,18.40
2006,08,06,08,49,18.50
2006,08,06,08,50,18.60
2006,08,06,08,51,18.80
2006,08,06,08,52,18.90
2006,08,06,08,53,19.00
2006,08,06,08,54,19.20
2006,08,06,08,55,19.20
2006,08,06,08,56,19.30
2006,08,06,08,57,19.40
2006,08,06,08,58,19.50
2006,08,06,08,59,19.60
2006,08,06,09,00,19.70
2006,08,06,09,01,19.80
2006,08,06,09,02,19.80
2006,08,06,09,03,19.90
2006,08,06,09,04,20.00
2006,08,06,09,05,20.00
2006,08,06,09,06,20.10
2006,08,06,09,07,20.20
2006,08,06,09,08,20.20
2006,08,06,09,09,20.20
2006,08,06,09,10,20.20
2006,08,06,09,11,20.20
2006,08,06,09,12,20.30
2006,08,06,09,13,20.30
2006,08,06,09,14,20.40
2006,08,06,09,15,20.40
2006,08,06,09,16,20.50
2006,08,06,09,17,20.60
2006,08,06,09,18,20.70
2006,08,06,09,19,20.80
2006,08,06,09,20,20.90
2006,08,06,09,21,20.90
2006,08,06,09,22,20.90
2006,08,06,09,23,21.00
2006,08,06,09,24,21.00
2006,08,06,09,25,21.00
2006,08,06,09,26,21.00
2006,08,06,09,27,21.00
2006,08,06,09,28,21.00
2006,08,06,09,29,21.00
2006,08,06,09,30,20.90
2006,08,06,09,31,20.90
2006,08,06,09,32,20.90
2006,08,06,09,33,21.00
2006,08,06,09,34,21.10
2006,08,06,09,35,21.10
2006,08,06,09,36,21.20
2006,08,06,09,37,21.20
2006,08,06,09,38,21.20
2006,08,06,09,39,21.40
2006,08,06,09,40,21.50
2006,08,06,09,41,21.60
2006,08,06,09,42,21.60
2006,08,06,09,43,21.70
2006,08,06,09,44,21.80
2006,08,06,09,45,21.80
2006,08,06,09,46,21.90
2006,08,06,09,47,22.00
2006,08,06,09,48,22.10
2006,08,06,09,49,22.10
2006,08,06,09,50,22.10
2006,08,06,09,51,22.20
2006,08,06,09,52,22.20
2006,08,06,09,53,22.20
2006,08,06,09,54,22.20
2006,08,06,09,55,22.10
2006,08,06,09,56,22.10
2006,08,06,09,57,22.10
2006,08,06,09,58,22.20
2006,08,06,09,59,22.20
2006,08,06,10,00,22.30
2006,08,06,10,01,22.20
2006,08,06,10,02,22.10
2006,08,06,10,03,22.00
2006,08,06,10,04,22.00
2006,08,06,10,05,21.90
2006,08,06,10,06,21.80
2006,08,06,10,07,21.70
2006,08,06,10,08,21.70
2006,08,06,10,09,21.80
2006,08,06,10,10,21.80
2006,08,06,10,11,21.90
2006,08,06,10,12,22.00
2006,08,06,10,13,22.10
2006,08,06,10,14,22.10
2006,08,06,10,15,22.10
2006,08,06,10,16,22.10
2006,08,06,10,17,22.10
2006,08,06,10,18,22.10
2006,08,06,10,19,22.10
2006,08,06,10,20,22.20
2006,08,06,10,21,22.30
2006,08,06,10,22,22.20
2006,08,06,10,23,22.10
2006,08,06,10,24,22.00
2006,08,06,10,25,22.00
2006,08,06,10,26,22.00
2006,08,06,10,27,22.10
2006,08,06,10,28,22.10
2006,08,06,10,29,22.00
2006,08,06,10,30,22.00
2006,08,06,10,31,22.10
2006,08,06,10,32,22.20
2006,08,06,10,33,22.20
2006,08,06,10,34,22.20
2006,08,06,10,35,22.30
2006,08,06,10,36,22.40
2006,08,06,10,37,22.50
2006,08,06,10,38,22.60
2006,08,06,10,39,22.70
2006,08,06,10,40,22.80
2006,08,06,10,41,22.90
2006,08,06,10,42,22.90
2006,08,06,10,43,22.90
2006,08,06,10,44,23.00
2006,08,06,10,45,23.10
2006,08,06,10,46,23.10
2006,08,06,10,47,23.10
2006,08,06,10,48,23.00
2006,08,06,10,49,22.80
2006,08,06,10,50,22.70
2006,08,06,10,51,22.70
2006,08,06,10,52,22.70
2006,08,06,10,53,22.80
2006,08,06,10,54,22.90
2006,08,06,10,55,23.00
2006,08,06,10,56,23.10
2006,08,06,10,57,23.10
2006,08,06,10,58,23.20
2006,08,06,10,59,23.10
2006,08,06,11,00,23.10
2006,08,06,11,01,23.10
2006,08,06,11,02,23.10
2006,08,06,11,03,23.20
2006,08,06,11,04,23.10
2006,08,06,11,05,22.90
2006,08,06,11,06,22.60
2006,08,06,11,07,22.30
2006,08,06,11,08,22.00
2006,08,06,11,09,21.80
2006,08,06,11,10,21.60
2006,08,06,11,11,21.40
2006,08,06,11,12,21.30
2006,08,06,11,13,21.10
2006,08,06,11,14,21.00
2006,08,06,11,15,20.80
2006,08,06,11,16,20.80
2006,08,06,11,17,20.70
2006,08,06,11,18,20.80
2006,08,06,11,19,20.70
2006,08,06,11,20,20.50
2006,08,06,11,21,20.40
2006,08,06,11,22,20.40
2006,08,06,11,23,20.50
2006,08,06,11,24,20.50
2006,08,06,11,25,20.40
2006,08,06,11,26,20.30
2006,08,06,11,27,20.30
2006,08,06,11,28,20.20
2006,08,06,11,29,20.20
2006,08,06,11,30,20.20
2006,08,06,11,31,20.10
2006,08,06,11,32,20.00
2006,08,06,11,33,20.00
2006,08,06,11,34,20.00
2006,08,06,11,35,20.20
2006,08,06,11,36,20.20
2006,08,06,11,37,20.20
2006,08,06,11,38,20.20
2006,08,06,11,39,20.20
2006,08,06,11,40,20.20
2006,08,06,11,41,20.30
2006,08,06,11,42,20.50
2006,08,06,11,43,20.60
2006,08,06,11,44,20.60
2006,08,06,11,45,20.50
2006,08,06,11,46,20.40
2006,08,06,11,47,20.40
2006,08,06,11,48,20.30
2006,08,06,11,49,20.40
2006,08,06,11,50,20.40
2006,08,06,11,51,20.40
2006,08,06,11,52,20.40
2006,08,06,11,53,20.30
2006,08,06,11,54,20.30
2006,08,06,11,55,20.40
2006,08,06,11,56,20.40
2006,08,06,11,57,20.40
2006,08,06,11,58,20.40
2006,08,06,11,59,20.40
2006,08,06,12,00,20.50
2006,08,06,12,01,20.50
2006,08,06,12,02,20.60
2006,08,06,12,03,20.70
2006,08,06,12,04,20.80
2006,08,06,12,05,20.90
2006,08,06,12,06,21.00
2006,08,06,12,07,21.10
2006,08,06,12,08,21.20
2006,08,06,12,09,21.30
2006,08,06,12,10,21.30
2006,08,06,12,11,21.30
2006,08,06,12,12,21.30
2006,08,06,12,13,21.40
2006,08,06,12,14,21.50
2006,08,06,12,15,21.60
2006,08,06,12,16,21.70
2006,08,06,12,17,21.70
2006,08,06,12,18,21.80
2006,08,06,12,19,22.00
2006,08,06,12,20,22.10
2006,08,06,12,21,22.10
2006,08,06,12,22,22.00
2006,08,06,12,23,22.00
2006,08,06,12,24,22.10
2006,08,06,12,25,22.20
2006,08,06,12,26,22.30
2006,08,06,12,27,22.30
2006,08,06,12,28,22.30
2006,08,06,12,29,22.20
2006,08,06,12,30,22.10
2006,08,06,12,31,21.90
2006,08,06,12,32,21.90
2006,08,06,12,33,22.00
2006,08,06,12,34,22.00
2006,08,06,12,35,22.00
2006,08,06,12,36,21.90
2006,08,06,12,37,21.90
2006,08,06,12,38,21.80
2006,08,06,12,39,21.80
2006,08,06,12,40,21.70
2006,08,06,12,41,21.60
2006,08,06,12,42,21.60
2006,08,06,12,43,21.50
2006,08,06,12,44,21.40
2006,08,06,12,45,21.40
2006,08,06,12,46,21.40
2006,08,06,12,47,21.50
2006,08,06,12,48,21.60
2006,08,06,12,49,21.60
2006,08,06,12,50,21.60
2006,08,06,12,51,21.60
2006,08,06,12,52,21.60
2006,08,06,12,53,21.80
2006,08,06,12,54,21.90
2006,08,06,12,55,21.80
2006,08,06,12,56,21.90
2006,08,06,12,57,22.00
2006,08,06,12,58,22.10
2006,08,06,12,59,22.20
2006,08,06,13,00,22.20
2006,08,06,13,01,22.20
2006,08,06,13,02,22.10
2006,08,06,13,03,22.10
2006,08,06,13,04,22.10
2006,08,06,13,05,22.10
2006,08,06,13,06,22.20
2006,08,06,13,07,22.30
2006,08,06,13,08,22.30
2006,08,06,13,09,22.30
2006,08,06,13,10,22.30
2006,08,06,13,11,22.40
2006,08,06,13,12,22.60
2006,08,06,13,13,22.60
2006,08,06,13,14,22.60
2006,08,06,13,15,22.60
2006,08,06,13,16,22.60
2006,08,06,13,17,22.70
2006,08,06,13,18,22.60
2006,08,06,13,19,22.60
2006,08,06,13,20,22.70
2006,08,06,13,21,22.70
2006,08,06,13,22,22.70
2006,08,06,13,23,22.70
2006,08,06,13,24,22.60
2006,08,06,13,25,22.60
2006,08,06,13,26,22.60
2006,08,06,13,27,22.50
2006,08,06,13,28,22.40
2006,08,06,13,29,22.50
2006,08,06,13,30,22.70
2006,08,06,13,31,22.70
2006,08,06,13,32,22.70
2006,08,06,13,33,22.70
2006,08,06,13,34,22.60
2006,08,06,13,35,22.60
2006,08,06,13,36,22.50
2006,08,06,13,37,22.50
2006,08,06,13,38,22.60
2006,08,06,13,39,22.60
2006,08,06,13,40,22.50
2006,08,06,13,41,22.40
2006,08,06,13,42,22.40
2006,08,06,13,43,22.50
2006,08,06,13,44,22.60
2006,08,06,13,45,22.60
2006,08,06,13,46,22.50
2006,08,06,13,47,22.50
2006,08,06,13,48,22.60
2006,08,06,13,49,22.60
2006,08,06,13,50,22.60
2006,08,06,13,51,22.50
2006,08,06,13,52,22.40
2006,08,06,13,53,22.30
2006,08,06,13,54,22.40
2006,08,06,13,55,22.40
2006,08,06,13,56,22.40
2006,08,06,13,57,22.30
2006,08,06,13,58,22.40
2006,08,06,13,59,22.50
2006,08,06,14,00,22.60
2006,08,06,14,01,22.50
2006,08,06,14,02,22.50
2006,08,06,14,03,22.40
2006,08,06,14,04,22.50
2006,08,06,14,05,22.60
2006,08,06,14,06,22.60
2006,08,06,14,07,22.60
2006,08,06,14,08,22.60
2006,08,06,14,09,22.60
2006,08,06,14,10,22.80
2006,08,06,14,11,22.80
2006,08,06,14,12,22.80
2006,08,06,14,13,22.80
2006,08,06,14,14,22.60
2006,08,06,14,15,22.60
2006,08,06,14,16,22.50
2006,08,06,14,17,22.40
2006,08,06,14,18,22.30
2006,08,06,14,19,22.20
2006,08,06,14,20,22.20
2006,08,06,14,21,22.10
2006,08,06,14,22,22.00
2006,08,06,14,23,21.80
2006,08,06,14,24,21.80
2006,08,06,14,25,21.80
2006,08,06,14,26,21.80
2006,08,06,14,27,21.80
2006,08,06,14,28,21.80
2006,08,06,14,29,21.70
2006,08,06,14,30,21.70
2006,08,06,14,31,21.80
2006,08,06,14,32,21.80
2006,08,06,14,33,21.90
2006,08,06,14,34,22.00
2006,08,06,14,35,22.20
2006,08,06,14,36,22.30
2006,08,06,14,37,22.20
2006,08,06,14,38,22.00
2006,08,06,14,39,21.90
2006,08,06,14,40,21.80
2006,08,06,14,41,21.80
2006,08,06,14,42,22.00
2006,08,06,14,43,22.10
2006,08,06,14,44,22.10
2006,08,06,14,45,22.10
2006,08,06,14,46,22.00
2006,08,06,14,47,22.00
2006,08,06,14,48,22.10
2006,08,06,14,49,22.00
2006,08,06,14,50,21.80
2006,08,06,14,51,21.80
2006,08,06,14,52,21.80
2006,08,06,14,53,21.90
2006,08,06,14,54,21.90
2006,08,06,14,55,21.90
2006,08,06,14,56,21.90
2006,08,06,14,57,21.90
2006,08,06,14,58,21.80
2006,08,06,14,59,21.70
2006,08,06,15,00,21.70
2006,08,06,15,01,21.70
2006,08,06,15,02,21.80
2006,08,06,15,03,21.90
2006,08,06,15,04,21.90
2006,08,06,15,05,21.80
2006,08,06,15,06,21.60
2006,08,06,15,07,21.40
2006,08,06,15,08,21.30
2006,08,06,15,09,21.20
2006,08,06,15,10,21.20
2006,08,06,15,11,21.20
2006,08,06,15,12,21.30
2006,08,06,15,13,21.40
2006,08,06,15,14,21.60
2006,08,06,15,15,21.80
2006,08,06,15,16,21.90
2006,08,06,15,17,21.90
2006,08,06,15,18,21.90
2006,08,06,15,19,21.80
2006,08,06,15,20,21.80
2006,08,06,15,21,21.80
2006,08,06,15,22,21.80
2006,08,06,15,23,21.80
2006,08,06,15,24,21.80
2006,08,06,15,25,21.80
2006,08,06,15,26,21.80
2006,08,06,15,27,21.70
2006,08,06,15,28,21.70
2006,08,06,15,29,21.60
2006,08,06,15,30,21.50
2006,08,06,15,31,21.40
2006,08,06,15,32,21.30
2006,08,06,15,33,21.50
2006,08,06,15,34,21.60
2006,08,06,15,35,21.50
2006,08,06,15,36,21.50
2006,08,06,15,37,21.40
2006,08,06,15,38,21.40
2006,08,06,15,39,21.40
2006,08,06,15,40,21.30
2006,08,06,15,41,21.20
2006,08,06,15,42,21.10
2006,08,06,15,43,21.00
2006,08,06,15,44,20.90
2006,08,06,15,45,20.80
2006,08,06,15,46,20.60
2006,08,06,15,47,20.40
2006,08,06,15,48,20.20
2006,08,06,15,49,20.10
2006,08,06,15,50,20.00
2006,08,06,15,51,19.90
2006,08,06,15,52,19.80
2006,08,06,15,53,19.80
2006,08,06,15,54,19.80
2006,08,06,15,55,19.60
2006,08,06,15,56,19.60
2006,08,06,15,57,19.60
2006,08,06,15,58,19.60
2006,08,06,15,59,19.70
2006,08,06,16,00,19.80
2006,08,06,16,01,19.90
2006,08,06,16,02,20.00
2006,08,06,16,03,20.00
2006,08,06,16,04,19.90
2006,08,06,16,05,19.80
2006,08,06,16,06,19.70
2006,08,06,16,07,19.70
2006,08,06,16,08,19.50
2006,08,06,16,09,19.30
2006,08,06,16,10,19.10
2006,08,06,16,11,19.00
2006,08,06,16,12,19.10
2006,08,06,16,13,19.00
2006,08,06,16,14,18.90
2006,08,06,16,15,18.80
2006,08,06,16,16,18.70
2006,08,06,16,17,18.80
2006,08,06,16,18,19.00
2006,08,06,16,19,19.00
2006,08,06,16,20,19.20
2006,08,06,16,21,19.30
2006,08,06,16,22,19.50
2006,08,06,16,23,19.60
2006,08,06,16,24,19.80
2006,08,06,16,25,19.90
2006,08,06,16,26,20.00
2006,08,06,16,27,20.10
2006,08,06,16,28,20.20
2006,08,06,16,29,20.30
2006,08,06,16,30,20.40
2006,08,06,16,31,20.60
2006,08,06,16,32,20.80
2006,08,06,16,33,21.00
2006,08,06,16,34,21.10
2006,08,06,16,35,21.10
2006,08,06,16,36,21.20
2006,08,06,16,37,21.20
2006,08,06,16,38,21.30
2006,08,06,16,39,21.30
2006,08,06,16,40,21.40
2006,08,06,16,41,21.40
2006,08,06,16,42,21.50
2006,08,06,16,43,21.60
2006,08,06,16,44,21.60
2006,08,06,16,45,21.60
2006,08,06,16,46,21.60
2006,08,06,16,47,21.60
2006,08,06,16,48,21.70
2006,08,06,16,49,21.70
2006,08,06,16,50,21.70
2006,08,06,16,51,21.90
2006,08,06,16,52,22.00
2006,08,06,16,53,22.10
2006,08,06,16,54,22.20
2006,08,06,16,55,22.20
2006,08,06,16,56,22.20
2006,08,06,16,57,22.20
2006,08,06,16,58,22.30
2006,08,06,16,59,22.20
2006,08,06,17,00,22.20
2006,08,06,17,01,22.20
2006,08,06,17,02,22.20
2006,08,06,17,03,22.30
2006,08,06,17,04,22.30
2006,08,06,17,05,22.20
2006,08,06,17,06,22.20
2006,08,06,17,07,22.20
2006,08,06,17,08,22.20
2006,08,06,17,09,22.20
2006,08,06,17,10,22.20
2006,08,06,17,11,22.30
2006,08,06,17,12,22.30
2006,08,06,17,13,22.40
2006,08,06,17,14,22.40
2006,08,06,17,15,22.30
2006,08,06,17,16,22.40
2006,08,06,17,17,22.40
2006,08,06,17,18,22.30
2006,08,06,17,19,22.30